| time (UTC) | temp F | wind direction | speed MPH | gust MPH | rain 1hr in | rain 24hr in | rain mn in | humidity % | barometer mb |
| 20260903021502 | 69 | 188 | 7.0 | 11.0 | 0.00 | 0.00 | 0.00 | 23 | 1000.1 |
| 20260903021001 | 70 | 174 | 5.0 | 9.0 | 0.00 | 0.00 | 0.00 | 23 | 1000.2 |
| 20260903020502 | 70 | 171 | 6.0 | 9.0 | 0.00 | 0.00 | 0.00 | 23 | 1000.2 |
| 20260903020100 | 71 | 197 | 5.0 | 8.0 | 0.00 | 0.00 | 0.00 | 23 | 1000.2 |
| 20260903015600 | 71 | 174 | 6.0 | 8.0 | 0.00 | 0.00 | 0.00 | 22 | 1000.2 |
| 20260903015100 | 72 | 169 | 5.0 | 7.0 | 0.00 | 0.00 | 0.00 | 23 | 1000.1 |
| 20260903014600 | 73 | 184 | 5.0 | 9.0 | 0.00 | 0.00 | 0.00 | 22 | 1000.1 |
| 20260903014100 | 74 | 191 | 5.0 | 14.0 | 0.00 | 0.00 | 0.00 | 22 | 1000.1 |
| 20260903013559 | 75 | 203 | 7.0 | 19.0 | 0.00 | 0.00 | 0.00 | 20 | 1000.2 |
| 20260903013105 | 76 | 212 | 11.0 | 19.0 | 0.00 | 0.00 | 0.00 | 19 | 1000.2 |
| 20260903012600 | 76 | 211 | 10.0 | 16.0 | 0.00 | 0.00 | 0.00 | 19 | 1000.2 |
| 20260903012100 | 76 | 222 | 7.0 | 11.0 | 0.00 | 0.00 | 0.00 | 21 | 1000.2 |
| 20260903011606 | 76 | 215 | 4.0 | 10.0 | 0.00 | 0.00 | 0.00 | 23 | 1000.3 |
| 20260903011058 | 77 | 201 | 5.0 | 12.0 | 0.00 | 0.00 | 0.00 | 22 | 1000.3 |
| 20260903010557 | 77 | 192 | 8.0 | 20.0 | 0.00 | 0.00 | 0.00 | 20 | 1000.3 |
| 20260903010111 | 78 | 192 | 11.0 | 20.0 | 0.00 | 0.00 | 0.00 | 19 | 1000.3 |
| 20260903005556 | 78 | 184 | 12.0 | 16.0 | 0.00 | 0.00 | 0.00 | 20 | 1000.2 |
| 20260903005055 | 78 | 135 | 12.0 | 19.0 | 0.00 | 0.00 | 0.00 | 20 | 1000.1 |
| 20260903004559 | 78 | 158 | 11.0 | 16.0 | 0.00 | 0.00 | 0.00 | 22 | 1000.1 |
| 20260903004055 | 79 | 168 | 10.0 | 20.0 | 0.00 | 0.00 | 0.00 | 22 | 1000.1 |
| 20260903003554 | 79 | 148 | 12.0 | 20.0 | 0.00 | 0.00 | 0.00 | 21 | 1000.1 |
| 20260903003056 | 80 | 157 | 14.0 | 21.0 | 0.00 | 0.00 | 0.00 | 20 | 1000.2 |
| 20260903002553 | 81 | 139 | 12.0 | 20.0 | 0.00 | 0.00 | 0.00 | 20 | 1000.2 |
| 20260903002054 | 81 | 168 | 14.0 | 23.0 | 0.00 | 0.00 | 0.00 | 19 | 1000.3 |
| 20260903001553 | 81 | 153 | 17.0 | 20.0 | 0.00 | 0.00 | 0.00 | 21 | 1000.2 |
| 20260903001053 | 82 | 144 | 15.0 | 25.0 | 0.00 | 0.00 | 0.00 | 19 | 1000.3 |
| 20260903000552 | 81 | 153 | 20.0 | 25.0 | 0.00 | 0.00 | 0.00 | 20 | 1000.2 |
| 20260903000053 | 81 | 154 | 15.0 | 24.0 | 0.00 | 0.00 | 0.00 | 21 | 1000.2 |
| 20260902235551 | 81 | 142 | 16.0 | 24.0 | 0.00 | 0.00 | 0.00 | 20 | 1000.3 |
| 20260902235053 | 81 | 182 | 17.0 | 24.0 | 0.00 | 0.00 | 0.00 | 20 | 1000.3 |
| 20260902234548 | 81 | 130 | 16.0 | 25.0 | 0.00 | 0.00 | 0.00 | 20 | 1000.4 |
| 20260902234049 | 81 | 163 | 19.0 | 25.0 | 0.00 | 0.00 | 0.00 | 20 | 1000.4 |
| 20260902233547 | 80 | 169 | 15.0 | 29.0 | 0.00 | 0.00 | 0.00 | 21 | 1000.5 |
| 20260902233047 | 80 | 154 | 17.0 | 30.0 | 0.00 | 0.00 | 0.00 | 21 | 1000.5 |
| 20260902232545 | 79 | 174 | 15.0 | 27.0 | 0.00 | 0.00 | 0.00 | 22 | 1000.5 |
| 20260902232046 | 79 | 129 | 16.0 | 24.0 | 0.00 | 0.00 | 0.00 | 21 | 1000.5 |
| 20260902231550 | 80 | 163 | 15.0 | 23.0 | 0.00 | 0.00 | 0.00 | 21 | 1000.5 |
| 20260902231048 | 81 | 197 | 15.0 | 23.0 | 0.00 | 0.00 | 0.00 | 21 | 1000.6 |
| 20260902230547 | 81 | 158 | 15.0 | 26.0 | 0.00 | 0.00 | 0.00 | 21 | 1000.6 |
| 20260902230044 | 82 | 178 | 18.0 | 22.0 | 0.00 | 0.00 | 0.00 | 20 | 1000.6 |
| 20260902225544 | 80 | 176 | 14.0 | 22.0 | 0.00 | 0.00 | 0.00 | 22 | 1000.6 |
| 20260902225044 | 80 | 176 | 13.0 | 26.0 | 0.00 | 0.00 | 0.00 | 22 | 1000.6 |
| 20260902224543 | 79 | 157 | 17.0 | 26.0 | 0.00 | 0.00 | 0.00 | 22 | 1000.6 |
| 20260902224042 | 80 | 136 | 17.0 | 29.0 | 0.00 | 0.00 | 0.00 | 22 | 1000.6 |
| 20260902223542 | 80 | 157 | 20.0 | 29.0 | 0.00 | 0.00 | 0.00 | 21 | 1000.6 |
| 20260902223041 | 81 | 143 | 18.0 | 28.0 | 0.00 | 0.00 | 0.00 | 22 | 1000.7 |
| 20260902222541 | 80 | 184 | 15.0 | 24.0 | 0.00 | 0.00 | 0.00 | 21 | 1000.7 |
| 20260902222043 | 80 | 170 | 15.0 | 23.0 | 0.00 | 0.00 | 0.00 | 22 | 1000.9 |
| 20260902221539 | 80 | 160 | 17.0 | 24.0 | 0.00 | 0.00 | 0.00 | 23 | 1000.8 |
| 20260902221039 | 81 | 149 | 15.0 | 24.0 | 0.00 | 0.00 | 0.00 | 22 | 1001.0 |
| 20260902220539 | 81 | 148 | 17.0 | 25.0 | 0.00 | 0.00 | 0.00 | 22 | 1001.0 |
| 20260902220040 | 81 | 188 | 16.0 | 23.0 | 0.00 | 0.00 | 0.00 | 22 | 1001.0 |
| 20260902215536 | 82 | 150 | 14.0 | 30.0 | 0.00 | 0.00 | 0.00 | 22 | 1001.1 |
| 20260902215038 | 82 | 151 | 18.0 | 32.0 | 0.00 | 0.00 | 0.00 | 22 | 1001.1 |
| 20260902214538 | 81 | 139 | 11.0 | 21.0 | 0.00 | 0.00 | 0.00 | 22 | 1001.2 |
| 20260902214035 | 81 | 181 | 13.0 | 24.0 | 0.00 | 0.00 | 0.00 | 22 | 1001.3 |
| 20260902213635 | 81 | 201 | 15.0 | 24.0 | 0.00 | 0.00 | 0.00 | 22 | 1001.4 |
| 20260902213033 | 80 | 194 | 16.0 | 31.0 | 0.00 | 0.00 | 0.00 | 22 | 1001.4 |
| 20260902212533 | 80 | 197 | 20.0 | 31.0 | 0.00 | 0.00 | 0.00 | 23 | 1001.5 |
| 20260902212033 | 81 | 169 | 12.0 | 20.0 | 0.00 | 0.00 | 0.00 | 23 | 1001.3 |
| 20260902211532 | 81 | 193 | 12.0 | 24.0 | 0.00 | 0.00 | 0.00 | 23 | 1001.5 |
| 20260902211032 | 82 | 186 | 16.0 | 25.0 | 0.00 | 0.00 | 0.00 | 22 | 1001.7 |
| 20260902210534 | 81 | 204 | 14.0 | 22.0 | 0.00 | 0.00 | 0.00 | 23 | 1001.5 |
| 20260902210036 | 81 | 158 | 14.0 | 25.0 | 0.00 | 0.00 | 0.00 | 23 | 1001.5 |
| 20260902205530 | 81 | 206 | 14.0 | 25.0 | 0.00 | 0.00 | 0.00 | 24 | 1001.6 |
| 20260902205030 | 82 | 195 | 12.0 | 24.0 | 0.00 | 0.00 | 0.00 | 22 | 1001.5 |
| 20260902204539 | 81 | 197 | 16.0 | 24.0 | 0.00 | 0.00 | 0.00 | 25 | 1001.6 |
| 20260902204029 | 80 | 161 | 15.0 | 22.0 | 0.00 | 0.00 | 0.00 | 23 | 1001.7 |
| 20260902203527 | 81 | 174 | 14.0 | 24.0 | 0.00 | 0.00 | 0.00 | 24 | 1001.7 |
| 20260902203027 | 81 | 194 | 14.0 | 29.0 | 0.00 | 0.00 | 0.00 | 25 | 1001.7 |
| 20260902202526 | 81 | 168 | 16.0 | 26.0 | 0.00 | 0.00 | 0.00 | 26 | 1001.7 |
| 20260902202026 | 81 | 201 | 18.0 | 23.0 | 0.00 | 0.00 | 0.00 | 24 | 1001.8 |
| 20260902201530 | 81 | 138 | 14.0 | 25.0 | 0.00 | 0.00 | 0.00 | 25 | 1001.7 |
| 20260902201024 | 80 | 178 | 9.0 | 26.0 | 0.00 | 0.00 | 0.00 | 25 | 1001.7 |
| 20260902200526 | 81 | 176 | 17.0 | 26.0 | 0.00 | 0.00 | 0.00 | 25 | 1002.0 |
| 20260902200024 | 81 | 148 | 16.0 | 22.0 | 0.00 | 0.00 | 0.00 | 25 | 1002.0 |
| 20260902195526 | 81 | 185 | 15.0 | 25.0 | 0.00 | 0.00 | 0.00 | 25 | 1002.1 |
| 20260902195021 | 80 | 194 | 16.0 | 25.0 | 0.00 | 0.00 | 0.00 | 26 | 1002.1 |
| 20260902194521 | 79 | 152 | 18.0 | 24.0 | 0.00 | 0.00 | 0.00 | 26 | 1002.2 |
| 20260902194024 | 79 | 159 | 16.0 | 24.0 | 0.00 | 0.00 | 0.00 | 27 | 1002.2 |
| 20260902193519 | 80 | 180 | 15.0 | 22.0 | 0.00 | 0.00 | 0.00 | 26 | 1002.3 |
| 20260902193019 | 79 | 187 | 12.0 | 23.0 | 0.00 | 0.00 | 0.00 | 26 | 1002.3 |
| 20260902192518 | 80 | 197 | 18.0 | 27.0 | 0.00 | 0.00 | 0.00 | 26 | 1002.5 |
| 20260902192017 | 80 | 167 | 17.0 | 27.0 | 0.00 | 0.00 | 0.00 | 27 | 1002.6 |
| 20260902191520 | 79 | 170 | 17.0 | 25.0 | 0.00 | 0.00 | 0.00 | 27 | 1002.6 |
| 20260902191016 | 79 | 173 | 14.0 | 29.0 | 0.00 | 0.00 | 0.00 | 27 | 1002.6 |
| 20260902190517 | 79 | 154 | 21.0 | 29.0 | 0.00 | 0.00 | 0.00 | 27 | 1002.5 |
| 20260902190016 | 79 | 201 | 14.0 | 26.0 | 0.00 | 0.00 | 0.00 | 27 | 1002.6 |
| 20260902185515 | 79 | 211 | 20.0 | 27.0 | 0.00 | 0.00 | 0.00 | 28 | 1002.8 |
| 20260902185014 | 79 | 195 | 16.0 | 27.0 | 0.00 | 0.00 | 0.00 | 28 | 1002.8 |
| 20260902184513 | 79 | 185 | 17.0 | 24.0 | 0.00 | 0.00 | 0.00 | 29 | 1002.8 |
| 20260902184013 | 79 | 160 | 12.0 | 26.0 | 0.00 | 0.00 | 0.00 | 27 | 1002.8 |
| 20260902183511 | 79 | 182 | 18.0 | 26.0 | 0.00 | 0.00 | 0.00 | 29 | 1002.9 |
| 20260902183010 | 78 | 168 | 11.0 | 24.0 | 0.00 | 0.00 | 0.00 | 29 | 1003.0 |
| 20260902182509 | 78 | 207 | 15.0 | 22.0 | 0.00 | 0.00 | 0.00 | 30 | 1003.2 |
| 20260902182009 | 78 | 190 | 13.0 | 23.0 | 0.00 | 0.00 | 0.00 | 30 | 1003.2 |
| 20260902181509 | 78 | 182 | 12.0 | 25.0 | 0.00 | 0.00 | 0.00 | 31 | 1003.2 |
| 20260902181008 | 78 | 189 | 14.0 | 26.0 | 0.00 | 0.00 | 0.00 | 31 | 1003.3 |
| 20260902180506 | 77 | 208 | 16.0 | 30.0 | 0.00 | 0.00 | 0.00 | 31 | 1003.4 |
| 20260902180007 | 77 | 190 | 20.0 | 30.0 | 0.00 | 0.00 | 0.00 | 34 | 1003.4 |
| 20260902175506 | 77 | 159 | 16.0 | 23.0 | 0.00 | 0.00 | 0.00 | 34 | 1003.3 |
| 20260902175010 | 77 | 161 | 18.0 | 29.0 | 0.00 | 0.00 | 0.00 | 33 | 1003.4 |
| 20260902174505 | 77 | 184 | 20.0 | 29.0 | 0.00 | 0.00 | 0.00 | 32 | 1003.5 |
| 20260902174008 | 77 | 151 | 19.0 | 33.0 | 0.00 | 0.00 | 0.00 | 34 | 1003.4 |
| 20260902173504 | 76 | 159 | 15.0 | 33.0 | 0.00 | 0.00 | 0.00 | 34 | 1003.4 |
| 20260902173005 | 77 | 192 | 13.0 | 29.0 | 0.00 | 0.00 | 0.00 | 35 | 1003.4 |
| 20260902172504 | 76 | 195 | 20.0 | 30.0 | 0.00 | 0.00 | 0.00 | 33 | 1003.5 |
| 20260902172004 | 76 | 198 | 19.0 | 30.0 | 0.00 | 0.00 | 0.00 | 33 | 1003.4 |
| 20260902171502 | 76 | 181 | 16.0 | 31.0 | 0.00 | 0.00 | 0.00 | 35 | 1003.4 |
| 20260902171004 | 76 | 192 | 19.0 | 27.0 | 0.00 | 0.00 | 0.00 | 34 | 1003.4 |
| 20260902170504 | 76 | 174 | 19.0 | 27.0 | 0.00 | 0.00 | 0.00 | 35 | 1003.4 |
| 20260902170002 | 77 | 159 | 18.0 | 29.0 | 0.00 | 0.00 | 0.00 | 35 | 1003.4 |
| 20260902165501 | 76 | 166 | 17.0 | 32.0 | 0.00 | 0.00 | 0.00 | 36 | 1003.3 |
| 20260902165003 | 76 | 201 | 21.0 | 32.0 | 0.00 | 0.00 | 0.00 | 35 | 1003.4 |
| 20260902164607 | 76 | 187 | 22.0 | 33.0 | 0.00 | 0.00 | 0.00 | 35 | 1003.3 |
| 20260902164100 | 75 | 178 | 22.0 | 33.0 | 0.00 | 0.00 | 0.00 | 36 | 1003.1 |
| 20260902163559 | 75 | 184 | 25.0 | 33.0 | 0.00 | 0.00 | 0.00 | 35 | 1003.1 |
| 20260902163059 | 75 | 136 | 19.0 | 33.0 | 0.00 | 0.00 | 0.00 | 37 | 1003.2 |
| 20260902162557 | 75 | 170 | 20.0 | 31.0 | 0.00 | 0.00 | 0.00 | 39 | 1003.1 |
| 20260902162059 | 75 | 179 | 23.0 | 31.0 | 0.00 | 0.00 | 0.00 | 39 | 1003.2 |
| 20260902161602 | 75 | 191 | 19.0 | 30.0 | 0.00 | 0.00 | 0.00 | 39 | 1003.2 |
| 20260902161057 | 75 | 159 | 22.0 | 32.0 | 0.00 | 0.00 | 0.00 | 38 | 1003.1 |
| 20260902160559 | 74 | 172 | 23.0 | 29.0 | 0.00 | 0.00 | 0.00 | 39 | 1003.3 |
| 20260902160054 | 74 | 172 | 22.0 | 34.0 | 0.00 | 0.00 | 0.00 | 40 | 1003.2 |
| 20260902155554 | 74 | 152 | 23.0 | 35.0 | 0.00 | 0.00 | 0.00 | 40 | 1003.3 |
| 20260902155053 | 74 | 144 | 22.0 | 31.0 | 0.00 | 0.00 | 0.00 | 41 | 1003.3 |
| 20260902154609 | 73 | 141 | 22.0 | 31.0 | 0.00 | 0.00 | 0.00 | 41 | 1003.3 |
| 20260902154052 | 73 | 145 | 23.0 | 30.0 | 0.00 | 0.00 | 0.00 | 41 | 1003.4 |
| 20260902153551 | 74 | 157 | 19.0 | 30.0 | 0.00 | 0.00 | 0.00 | 41 | 1003.5 |
| 20260902153051 | 74 | 165 | 21.0 | 27.0 | 0.00 | 0.00 | 0.00 | 41 | 1003.4 |
| 20260902152553 | 73 | 166 | 20.0 | 30.0 | 0.00 | 0.00 | 0.00 | 41 | 1003.5 |
| 20260902152049 | 73 | 152 | 20.0 | 30.0 | 0.00 | 0.00 | 0.00 | 42 | 1003.6 |
| 20260902151552 | 73 | 149 | 22.0 | 30.0 | 0.00 | 0.00 | 0.00 | 42 | 1003.7 |
| 20260902151046 | 72 | 161 | 21.0 | 28.0 | 0.00 | 0.00 | 0.00 | 44 | 1003.7 |
| 20260902150546 | 72 | 138 | 14.0 | 23.0 | 0.00 | 0.00 | 0.00 | 45 | 1003.6 |
| 20260902150046 | 72 | 181 | 16.0 | 24.0 | 0.00 | 0.00 | 0.00 | 44 | 1003.7 |
| 20260902145546 | 72 | 138 | 14.0 | 26.0 | 0.00 | 0.00 | 0.00 | 44 | 1003.7 |
| 20260902145045 | 71 | 145 | 15.0 | 25.0 | 0.00 | 0.00 | 0.00 | 45 | 1003.6 |
| 20260902144549 | 71 | 129 | 17.0 | 28.0 | 0.00 | 0.00 | 0.00 | 44 | 1003.4 |
| 20260902144044 | 71 | 150 | 17.0 | 28.0 | 0.00 | 0.00 | 0.00 | 44 | 1003.3 |
| 20260902143545 | 71 | 164 | 18.0 | 28.0 | 0.00 | 0.00 | 0.00 | 45 | 1003.3 |
| 20260902143043 | 71 | 139 | 13.0 | 32.0 | 0.00 | 0.00 | 0.00 | 43 | 1003.2 |
| 20260902142543 | 71 | 161 | 18.0 | 34.0 | 0.00 | 0.00 | 0.00 | 43 | 1003.2 |
| 20260902142043 | 70 | 151 | 15.0 | 27.0 | 0.00 | 0.00 | 0.00 | 44 | 1003.2 |
| 20260902141540 | 70 | 130 | 16.0 | 26.0 | 0.00 | 0.00 | 0.00 | 44 | 1003.3 |
| 20260902141039 | 69 | 155 | 18.0 | 26.0 | 0.00 | 0.00 | 0.00 | 45 | 1003.4 |
| 20260902140540 | 68 | 127 | 14.0 | 29.0 | 0.00 | 0.00 | 0.00 | 48 | 1003.4 |
| 20260902140041 | 68 | 157 | 16.0 | 24.0 | 0.00 | 0.00 | 0.00 | 49 | 1003.5 |
| 20260902135538 | 68 | 140 | 13.0 | 21.0 | 0.00 | 0.00 | 0.00 | 48 | 1003.4 |
| 20260902135038 | 68 | 142 | 15.0 | 24.0 | 0.00 | 0.00 | 0.00 | 49 | 1003.4 |
| 20260902134538 | 67 | 145 | 17.0 | 24.0 | 0.00 | 0.00 | 0.00 | 49 | 1003.5 |
| 20260902134038 | 66 | 141 | 11.0 | 19.0 | 0.00 | 0.00 | 0.00 | 52 | 1003.4 |
| 20260902133537 | 65 | 126 | 14.0 | 19.0 | 0.00 | 0.00 | 0.00 | 52 | 1003.4 |
| 20260902133040 | 64 | 153 | 13.0 | 17.0 | 0.00 | 0.00 | 0.00 | 53 | 1003.6 |
| 20260902132537 | 64 | 151 | 12.0 | 19.0 | 0.00 | 0.00 | 0.00 | 52 | 1003.5 |
| 20260902132036 | 65 | 174 | 14.0 | 19.0 | 0.00 | 0.00 | 0.00 | 52 | 1003.5 |
| 20260902131541 | 64 | 145 | 13.0 | 18.0 | 0.00 | 0.00 | 0.00 | 53 | 1003.6 |
| 20260902131042 | 65 | 161 | 12.0 | 18.0 | 0.00 | 0.00 | 0.00 | 52 | 1003.5 |
| 20260902130539 | 66 | 167 | 12.0 | 20.0 | 0.00 | 0.00 | 0.00 | 52 | 1003.5 |
| 20260902130136 | 65 | 132 | 11.0 | 20.0 | 0.00 | 0.00 | 0.00 | 52 | 1003.5 |
| 20260902125536 | 65 | 163 | 13.0 | 20.0 | 0.00 | 0.00 | 0.00 | 52 | 1003.3 |
| 20260902125036 | 65 | 133 | 13.0 | 22.0 | 0.00 | 0.00 | 0.00 | 53 | 1003.4 |
| 20260902124536 | 66 | 153 | 12.0 | 22.0 | 0.00 | 0.00 | 0.00 | 52 | 1003.4 |
| 20260902124035 | 65 | 161 | 12.0 | 18.0 | 0.00 | 0.00 | 0.00 | 53 | 1003.4 |
| 20260902123534 | 66 | 183 | 13.0 | 18.0 | 0.00 | 0.00 | 0.00 | 52 | 1003.5 |
| 20260902123035 | 65 | 140 | 13.0 | 17.0 | 0.00 | 0.00 | 0.00 | 53 | 1003.4 |
| 20260902122538 | 66 | 148 | 12.0 | 19.0 | 0.00 | 0.00 | 0.00 | 52 | 1003.4 |
| 20260902122034 | 67 | 157 | 12.0 | 19.0 | 0.00 | 0.00 | 0.00 | 51 | 1003.4 |
| 20260902121533 | 68 | 134 | 14.0 | 22.0 | 0.00 | 0.00 | 0.00 | 51 | 1003.2 |
| 20260902121033 | 68 | 134 | 13.0 | 22.0 | 0.00 | 0.00 | 0.00 | 50 | 1003.3 |
| 20260902120533 | 68 | 126 | 15.0 | 26.0 | 0.00 | 0.00 | 0.00 | 51 | 1003.3 |
| 20260902120134 | 68 | 127 | 18.0 | 26.0 | 0.00 | 0.00 | 0.00 | 50 | 1003.1 |
| 20260902115532 | 67 | 155 | 13.0 | 18.0 | 0.00 | 0.00 | 0.00 | 51 | 1003.2 |
| 20260902115032 | 68 | 149 | 11.0 | 17.0 | 0.00 | 0.00 | 0.00 | 49 | 1003.3 |
| 20260902114532 | 68 | 133 | 11.0 | 23.0 | 0.00 | 0.00 | 0.00 | 49 | 1003.3 |
| 20260902114031 | 69 | 135 | 17.0 | 22.0 | 0.00 | 0.00 | 0.00 | 49 | 1003.3 |
| 20260902113531 | 69 | 147 | 12.0 | 26.0 | 0.00 | 0.00 | 0.00 | 48 | 1003.3 |
| 20260902113032 | 69 | 126 | 13.0 | 26.0 | 0.00 | 0.00 | 0.00 | 48 | 1003.4 |
| 20260902112530 | 69 | 120 | 17.0 | 23.0 | 0.00 | 0.00 | 0.00 | 48 | 1003.4 |
| 20260902112031 | 69 | 152 | 14.0 | 30.0 | 0.00 | 0.00 | 0.00 | 49 | 1003.5 |
| 20260902111529 | 69 | 144 | 14.0 | 30.0 | 0.00 | 0.00 | 0.00 | 48 | 1003.5 |
| 20260902111027 | 68 | 134 | 13.0 | 22.0 | 0.00 | 0.00 | 0.00 | 50 | 1003.6 |
| 20260902110526 | 67 | 144 | 11.0 | 27.0 | 0.00 | 0.00 | 0.00 | 51 | 1003.5 |
| 20260902110026 | 67 | 168 | 17.0 | 27.0 | 0.00 | 0.00 | 0.00 | 52 | 1003.6 |
| 20260902105524 | 65 | 130 | 11.0 | 22.0 | 0.00 | 0.00 | 0.00 | 52 | 1003.5 |
| 20260902105025 | 64 | 138 | 13.0 | 22.0 | 0.00 | 0.00 | 0.00 | 53 | 1003.6 |
| 20260902104524 | 63 | 124 | 6.0 | 15.0 | 0.00 | 0.00 | 0.00 | 53 | 1003.6 |
| 20260902104026 | 64 | 153 | 8.0 | 17.0 | 0.00 | 0.00 | 0.00 | 53 | 1003.5 |
| 20260902103523 | 64 | 128 | 12.0 | 17.0 | 0.00 | 0.00 | 0.00 | 53 | 1003.6 |
| 20260902103036 | 63 | 144 | 12.0 | 15.0 | 0.00 | 0.00 | 0.00 | 52 | 1003.7 |
| 20260902102524 | 63 | 172 | 11.0 | 16.0 | 0.00 | 0.00 | 0.00 | 53 | 1003.6 |
| 20260902102023 | 63 | 142 | 10.0 | 17.0 | 0.00 | 0.00 | 0.00 | 52 | 1003.6 |
| 20260902101538 | 63 | 149 | 11.0 | 18.0 | 0.00 | 0.00 | 0.00 | 52 | 1003.6 |
| 20260902101026 | 63 | 140 | 12.0 | 21.0 | 0.00 | 0.00 | 0.00 | 52 | 1003.6 |
| 20260902100522 | 63 | 164 | 12.0 | 22.0 | 0.00 | 0.00 | 0.00 | 53 | 1003.7 |
| 20260902100022 | 62 | 185 | 11.0 | 17.0 | 0.00 | 0.00 | 0.00 | 53 | 1003.7 |
| 20260902095521 | 60 | 153 | 9.0 | 16.0 | 0.00 | 0.00 | 0.00 | 52 | 1003.7 |
| 20260902095020 | 60 | 157 | 7.0 | 14.0 | 0.00 | 0.00 | 0.00 | 53 | 1003.7 |
| 20260902094520 | 61 | 157 | 9.0 | 17.0 | 0.00 | 0.00 | 0.00 | 53 | 1003.7 |
| 20260902094019 | 60 | 126 | 12.0 | 16.0 | 0.00 | 0.00 | 0.00 | 52 | 1003.7 |
| 20260902093519 | 60 | 155 | 11.0 | 15.0 | 0.00 | 0.00 | 0.00 | 53 | 1003.7 |
| 20260902093018 | 61 | 157 | 10.0 | 18.0 | 0.00 | 0.00 | 0.00 | 53 | 1003.8 |
| 20260902092517 | 62 | 159 | 12.0 | 19.0 | 0.00 | 0.00 | 0.00 | 53 | 1003.7 |
| 20260902092018 | 61 | 145 | 12.0 | 19.0 | 0.00 | 0.00 | 0.00 | 52 | 1003.8 |
| 20260902091516 | 60 | 143 | 12.0 | 16.0 | 0.00 | 0.00 | 0.00 | 52 | 1003.8 |
| 20260902091014 | 60 | 166 | 9.0 | 15.0 | 0.00 | 0.00 | 0.00 | 53 | 1003.8 |
| 20260902090513 | 61 | 146 | 11.0 | 16.0 | 0.00 | 0.00 | 0.00 | 53 | 1003.7 |
| 20260902090012 | 62 | 166 | 12.0 | 16.0 | 0.00 | 0.00 | 0.00 | 53 | 1003.8 |
| 20260902085511 | 63 | 136 | 10.0 | 16.0 | 0.00 | 0.00 | 0.00 | 53 | 1003.9 |
| 20260902085011 | 65 | 125 | 8.0 | 16.0 | 0.00 | 0.00 | 0.00 | 51 | 1003.8 |
| 20260902084510 | 67 | 154 | 10.0 | 15.0 | 0.00 | 0.00 | 0.00 | 49 | 1003.8 |
| 20260902084010 | 67 | 146 | 9.0 | 17.0 | 0.00 | 0.00 | 0.00 | 49 | 1003.8 |
| 20260902083509 | 65 | 137 | 14.0 | 17.0 | 0.00 | 0.00 | 0.00 | 52 | 1003.8 |
| 20260902083008 | 62 | 127 | 10.0 | 14.0 | 0.00 | 0.00 | 0.00 | 53 | 1003.8 |
| 20260902082508 | 63 | 128 | 11.0 | 18.0 | 0.00 | 0.00 | 0.00 | 53 | 1003.9 |
| 20260902082008 | 64 | 125 | 12.0 | 18.0 | 0.00 | 0.00 | 0.00 | 53 | 1003.9 |
| 20260902081508 | 65 | 127 | 11.0 | 19.0 | 0.00 | 0.00 | 0.00 | 53 | 1003.9 |
| 20260902081007 | 65 | 120 | 14.0 | 19.0 | 0.00 | 0.00 | 0.00 | 53 | 1003.9 |
| 20260902080515 | 64 | 112 | 13.0 | 18.0 | 0.00 | 0.00 | 0.00 | 53 | 1004.0 |
| 20260902080006 | 65 | 132 | 12.0 | 15.0 | 0.00 | 0.00 | 0.00 | 53 | 1004.0 |
| 20260902075505 | 65 | 132 | 11.0 | 16.0 | 0.00 | 0.00 | 0.00 | 52 | 1003.9 |
| 20260902075005 | 66 | 130 | 12.0 | 19.0 | 0.00 | 0.00 | 0.00 | 52 | 1003.9 |
| 20260902074505 | 66 | 117 | 14.0 | 19.0 | 0.00 | 0.00 | 0.00 | 52 | 1003.9 |
| 20260902074105 | 66 | 123 | 14.0 | 17.0 | 0.00 | 0.00 | 0.00 | 52 | 1003.9 |
| 20260902073504 | 66 | 128 | 11.0 | 14.0 | 0.00 | 0.00 | 0.00 | 52 | 1003.8 |
| 20260902073003 | 67 | 146 | 10.0 | 18.0 | 0.00 | 0.00 | 0.00 | 51 | 1003.9 |
| 20260902072502 | 67 | 132 | 14.0 | 18.0 | 0.00 | 0.00 | 0.00 | 50 | 1003.9 |
| 20260902072001 | 67 | 124 | 14.0 | 18.0 | 0.00 | 0.00 | 0.00 | 51 | 1003.8 |
| 20260902071502 | 67 | 124 | 12.0 | 18.0 | 0.00 | 0.00 | 0.00 | 51 | 1003.8 |
| 20260902071003 | 67 | 120 | 12.0 | 20.0 | 0.00 | 0.00 | 0.00 | 51 | 1003.8 |
| 20260902070600 | 67 | 142 | 14.0 | 20.0 | 0.00 | 0.00 | 0.00 | 51 | 1003.7 |
| 20260902065558 | 66 | 118 | 15.0 | 21.0 | 0.00 | 0.00 | 0.00 | 51 | 1003.8 |
| 20260902065058 | 66 | 138 | 14.0 | 20.0 | 0.00 | 0.00 | 0.00 | 52 | 1003.8 |
| 20260902064617 | 66 | 120 | 13.0 | 17.0 | 0.00 | 0.00 | 0.00 | 52 | 1003.7 |
| 20260902064056 | 66 | 116 | 14.0 | 19.0 | 0.00 | 0.00 | 0.00 | 52 | 1003.8 |
| 20260902063554 | 66 | 130 | 14.0 | 19.0 | 0.00 | 0.00 | 0.00 | 52 | 1003.8 |
| 20260902063056 | 65 | 128 | 11.0 | 16.0 | 0.00 | 0.00 | 0.00 | 52 | 1003.8 |
| 20260902062554 | 64 | 123 | 12.0 | 16.0 | 0.00 | 0.00 | 0.00 | 53 | 1003.9 |
| 20260902062051 | 62 | 135 | 10.0 | 14.0 | 0.00 | 0.00 | 0.00 | 53 | 1003.9 |
| 20260902061553 | 62 | 122 | 10.0 | 14.0 | 0.00 | 0.00 | 0.00 | 53 | 1003.9 |
| 20260902061049 | 62 | 130 | 9.0 | 13.0 | 0.00 | 0.00 | 0.00 | 53 | 1003.9 |
| 20260902060550 | 64 | 130 | 8.0 | 15.0 | 0.00 | 0.00 | 0.00 | 52 | 1003.9 |
| 20260902060051 | 65 | 121 | 10.0 | 15.0 | 0.00 | 0.00 | 0.00 | 51 | 1004.0 |
| 20260902055545 | 65 | 120 | 11.0 | 16.0 | 0.00 | 0.00 | 0.00 | 51 | 1004.0 |
| 20260902055043 | 65 | 118 | 12.0 | 17.0 | 0.00 | 0.00 | 0.00 | 51 | 1004.0 |
| 20260902054543 | 65 | 122 | 14.0 | 17.0 | 0.00 | 0.00 | 0.00 | 50 | 1004.0 |
| 20260902054041 | 66 | 119 | 11.0 | 16.0 | 0.00 | 0.00 | 0.00 | 49 | 1004.1 |
| 20260902053539 | 66 | 115 | 12.0 | 16.0 | 0.00 | 0.00 | 0.00 | 49 | 1004.1 |
| 20260902053038 | 66 | 120 | 12.0 | 15.0 | 0.00 | 0.00 | 0.00 | 49 | 1004.1 |
| 20260902052541 | 67 | 109 | 12.0 | 15.0 | 0.00 | 0.00 | 0.00 | 48 | 1004.1 |
| 20260902052034 | 67 | 122 | 9.0 | 15.0 | 0.00 | 0.00 | 0.00 | 49 | 1004.1 |
| 20260902051533 | 67 | 130 | 10.0 | 16.0 | 0.00 | 0.00 | 0.00 | 48 | 1004.1 |
| 20260902051032 | 67 | 109 | 10.0 | 17.0 | 0.00 | 0.00 | 0.00 | 49 | 1004.1 |
| 20260902050533 | 67 | 100 | 11.0 | 17.0 | 0.00 | 0.00 | 0.00 | 48 | 1004.1 |
| 20260902050029 | 68 | 115 | 11.0 | 16.0 | 0.00 | 0.00 | 0.00 | 48 | 1004.0 |
| 20260902045527 | 68 | 116 | 10.0 | 18.0 | 0.00 | 0.00 | 0.00 | 48 | 1004.0 |
| 20260902045026 | 69 | 121 | 13.0 | 18.0 | 0.00 | 0.00 | 0.00 | 47 | 1004.1 |
| 20260902044526 | 68 | 120 | 10.0 | 16.0 | 0.00 | 0.00 | 0.00 | 48 | 1004.1 |
| 20260902044026 | 69 | 103 | 11.0 | 17.0 | 0.00 | 0.00 | 0.00 | 47 | 1004.0 |
| 20260902043526 | 67 | 132 | 11.0 | 17.0 | 0.00 | 0.00 | 0.00 | 49 | 1004.1 |
| 20260902043025 | 67 | 129 | 10.0 | 13.0 | 0.00 | 0.00 | 0.00 | 50 | 1004.1 |
| 20260902042526 | 68 | 116 | 7.0 | 15.0 | 0.00 | 0.00 | 0.00 | 50 | 1004.1 |
| 20260902042026 | 67 | 109 | 10.0 | 15.0 | 0.00 | 0.00 | 0.00 | 51 | 1004.1 |
| 20260902041524 | 65 | 117 | 8.0 | 10.0 | 0.00 | 0.00 | 0.00 | 53 | 1004.0 |
| 20260902041026 | 65 | 164 | 5.0 | 10.0 | 0.00 | 0.00 | 0.00 | 53 | 1004.0 |
| 20260902040520 | 65 | 118 | 7.0 | 11.0 | 0.00 | 0.00 | 0.00 | 53 | 1004.1 |
| 20260902040020 | 65 | 120 | 9.0 | 11.0 | 0.00 | 0.00 | 0.00 | 52 | 1004.2 |
| 20260902035518 | 65 | 120 | 7.0 | 10.0 | 0.00 | 0.00 | 0.00 | 52 | 1004.1 |
| 20260902035017 | 65 | 125 | 7.0 | 10.0 | 0.00 | 0.00 | 0.00 | 52 | 1004.0 |
| 20260902034516 | 66 | 118 | 8.0 | 12.0 | 0.00 | 0.00 | 0.00 | 52 | 1004.0 |
| 20260902034014 | 66 | 128 | 8.0 | 12.0 | 0.00 | 0.00 | 0.00 | 52 | 1003.9 |
| 20260902033512 | 66 | 110 | 8.0 | 11.0 | 0.00 | 0.00 | 0.00 | 52 | 1003.9 |
| 20260902033011 | 66 | 124 | 7.0 | 10.0 | 0.00 | 0.00 | 0.00 | 52 | 1003.8 |
| 20260902032509 | 65 | 120 | 6.0 | 9.0 | 0.00 | 0.00 | 0.00 | 52 | 1003.8 |
| 20260902032007 | 65 | 157 | 5.0 | 7.0 | 0.00 | 0.00 | 0.00 | 52 | 1003.7 |
| 20260902031506 | 65 | 147 | 5.0 | 8.0 | 0.00 | 0.00 | 0.00 | 52 | 1003.6 |
| 20260902031005 | 66 | 129 | 5.0 | 9.0 | 0.00 | 0.00 | 0.00 | 52 | 1003.5 |
| 20260902030503 | 66 | 118 | 6.0 | 9.0 | 0.00 | 0.00 | 0.00 | 51 | 1003.5 |
| 20260902030002 | 66 | 140 | 5.0 | 8.0 | 0.00 | 0.00 | 0.00 | 51 | 1003.4 |
| 20260902025502 | 66 | 134 | 5.0 | 7.0 | 0.00 | 0.00 | 0.00 | 51 | 1003.3 |
| 20260902025102 | 66 | 161 | 5.0 | 6.0 | 0.00 | 0.00 | 0.00 | 52 | 1003.3 |
| 20260902024609 | 68 | 172 | 4.0 | 8.0 | 0.00 | 0.00 | 0.00 | 52 | 1003.2 |
| 20260902024059 | 69 | 151 | 4.0 | 9.0 | 0.00 | 0.00 | 0.00 | 52 | 1003.0 |
| 20260902023555 | 69 | 145 | 5.0 | 9.0 | 0.00 | 0.00 | 0.00 | 52 | 1003.1 |
| 20260902023101 | 70 | 146 | 5.0 | 8.0 | 0.00 | 0.00 | 0.00 | 52 | 1003.0 |
| 20260902022553 | 70 | 157 | 6.0 | 10.0 | 0.00 | 0.00 | 0.00 | 51 | 1003.0 |
| 20260902022055 | 71 | 136 | 8.0 | 12.0 | 0.00 | 0.00 | 0.00 | 50 | 1003.0 |
| 20260902021554 | 71 | 147 | 8.0 | 12.0 | 0.00 | 0.00 | 0.00 | 50 | 1003.0 |